Search for airport 
image banner adimage banner adimage banner ad
image banner ad

CL50 - Westwood Gateway

Located in Los Angeles, United States

ICAO - CL50, IATA -

Data provided by Airmate  

General information

Coordinates: N34°2'52" W118°26'42"
Elevation is 321 feet MSL.
Magnetic variation is 14° East
View others Airports in California

Operational data

Special qualification required
Current time UTC:
Current local time:
Weather at : KSMO - Santa Monica Muni ( 4 km )
METAR: KSMO 240751Z AUTO 11003KT 10SM OVC009 17/14 A3001 RMK AO2 SLP159 T01670139 402170161
TAF: KSMO 240713Z 2407/2506 20005KT P6SM BKN009 FM241000 VRB03KT P6SM BKN010 FM241800 23004KT P6SM SCT010 FM242000 23010KT P6SM SKC FM250500 VRB03KT P6SM SKC
View NOTAMs / SUP AIP / TFR affecting this airport [VIEW]
Communications frequencies: [VIEW]

Runways:

Airport contact information

Address: Los Angeles United States

Satellite view of CL50